Home > Weather > Bury > Past weeks

Flag for United Kingdom Weather for the Past 2 Weeks in Bury, England, United Kingdom

Now
54 °F

Sunny.


Feels Like: 50 °F
Forecast: 40 / 61 °F
Wind: 12 mph from West

Location: Manchester Airport

Current Time: May 3, 2016 at 7:19:51 PM

Latest Report: May 3, 2016 at 6:50 PM


Visibility: 10 mi

Pressure: 30.27 "Hg

Humidity: 44%

Dew Point: 32 °F

Location of BuryLocation

Historic Weather in Bury — Graph

°F

Bury Temperature Yesterday

Maximum temperature yesterday: 55 °F (at 9:50 AM)
Minimum temperature yesterday: 43 °F (at 10:20 PM)
Average temperature yesterday: 51 °F

High & Low Weather Summary for the Past Weeks

 TemperatureHumidityPressure
High63 °F (Apr 21, 2:50 PM)94% (May 2, 3:50 AM)30.48 "Hg (May 2, 3:50 AM)
Low30 °F (Apr 27, 2:50 AM)31% (Apr 20, 2:50 PM)29.65 "Hg (Apr 29, 3:20 AM)
Average45 °F71%30.08 "Hg
* Reported Apr 18 6:20 PM — May 3 6:20 PM, Bury, Weather by CustomWeather, © 2016

Note: Actual official high and low records may vary slightly from our data, if they occured in-between our weather recording intervals... More about our weather records

Advertising

Bury Weather History for the Previous 24 Hours

Scroll right to see more
 ConditionsComfort  
Time TempWeatherWind HumidityBarometerVisibility
6:20 PM
Tue, May 3
54 °FCool.14 mph47%30.27 "HgN/A
5:50 PM54 °FSunny.14 mph44%30.27 "Hg10 mi
5:20 PM55 °FPassing clouds.14 mph44%30.27 "HgN/A
4:50 PM55 °FScattered clouds.15 mph44%30.27 "HgN/A
4:20 PM55 °FScattered clouds.15 mph51%30.27 "HgN/A
3:50 PM55 °FScattered clouds.15 mph51%30.27 "HgN/A
3:20 PM55 °FPassing clouds.16 mph51%30.27 "HgN/A
2:50 PM55 °FPassing clouds.15 mph47%30.27 "HgN/A
2:20 PM55 °FPassing clouds.17 mph51%30.24 "HgN/A
1:50 PM54 °FScattered clouds.14 mph51%30.24 "HgN/A
1:20 PM54 °FScattered clouds.16 mph54%30.24 "HgN/A
12:20 PM52 °FScattered clouds.15 mph58%30.24 "HgN/A
11:50 AM52 °FScattered clouds.14 mph62%30.24 "HgN/A
11:20 AM50 °FScattered clouds.17 mph62%30.24 "HgN/A
10:50 AM50 °FScattered clouds.14 mph67%30.21 "HgN/A
10:20 AM50 °FScattered showers. Scattered clouds.15 mph62%30.21 "HgN/A
9:50 AM48 °FScattered showers. Scattered clouds.13 mph71%30.21 "HgN/A
9:20 AM48 °FScattered clouds.13 mph71%30.21 "HgN/A
8:50 AM48 °FPassing clouds.15 mph71%30.21 "HgN/A
8:20 AM46 °FPassing clouds.13 mph76%30.21 "HgN/A
7:50 AM45 °FPassing clouds.10 mph76%30.18 "HgN/A
7:20 AM43 °FPassing clouds.9 mph81%30.18 "HgN/A
6:50 AM41 °FPassing clouds.8 mph81%30.18 "HgN/A
6:20 AM39 °FPassing clouds.9 mph87%30.18 "HgN/A
5:50 AM39 °FPassing clouds.9 mph87%30.18 "HgN/A
5:20 AM39 °FPassing clouds.10 mph87%30.15 "HgN/A
4:50 AM39 °FPassing clouds.9 mph87%30.15 "HgN/A
4:20 AM39 °FPassing clouds.10 mph87%30.15 "HgN/A
3:50 AM37 °FPassing clouds.7 mph87%30.15 "HgN/A
3:20 AM37 °FPassing clouds.7 mph87%30.15 "HgN/A
2:20 AM37 °FPassing clouds.9 mph87%30.12 "HgN/A
1:50 AM37 °FClear.9 mph87%30.12 "Hg10 mi
1:20 AM39 °FClear.6 mph87%30.12 "Hg10 mi
12:50 AM39 °FClear.6 mph81%30.12 "Hg10 mi
12:20 AM41 °FClear.6 mph81%30.12 "Hg10 mi
11:50 PM
Mon, May 2
43 °FPassing clouds.8 mph81%30.12 "HgN/A
11:20 PM43 °FClear.9 mph81%30.09 "Hg10 mi
10:50 PM43 °FClear.8 mph81%30.09 "Hg10 mi
10:20 PM43 °FClear.7 mph81%30.09 "Hg10 mi
9:50 PM45 °FClear.9 mph76%30.07 "Hg10 mi
9:20 PM46 °FPartly sunny.10 mph71%30.07 "HgN/A
8:50 PM46 °FPassing clouds.14 mph71%30.07 "HgN/A
8:20 PM48 °FPassing clouds.14 mph66%30.04 "HgN/A
7:50 PM48 °FScattered clouds.17 mph66%30.04 "HgN/A
7:20 PM50 °FSunny.16 mph62%30.01 "Hg10 mi
Weather by CustomWeather, © 2016

See weather overviewHow to use our weather pages